Terminal Aerodrome Forecast
Issued by NWS

Home | Current Version | Previous Version | Text Only | Print | Product List | Glossary On
Versions: 1 2 3 4 5 6 7 8 9 10 11 12 13 14 15 16 17 18 19 20 21 22 23 24 25 26 27 28 29 30 31 32 33 34 35 36 37 38 39 40 41 42 43 44 45 46 47 48 49 50
000
FTUS41 KCTP 262214 AAB
TAFBFD
TAF AMD
KBFD 262214Z 2622/2718 36005KT 2SM -SN BKN035 OVC040
      TEMPO 2622/2623 1 1/2SM -SN BKN020 OVC030
     FM262300 01006KT 2SM -SN BR BKN022 OVC050
     FM270700 34005KT 4SM -SHSN BKN015=

USA.gov is the U.S. government's official web portal to all federal, state and local government web resources and services.